KA1AL Weather Reports


Display with metric or nautical units.
time (UTC)temp
F
wind
direction
speed
MPH
gust
MPH
rain 1hr
in
rain 24hr
in
rain mn
in
humidity
%
barometer
mb
20260504222120 55 236 5.0 6.0 0.00 0.02 0.02 73 1004.6
20260504221616 56 278 5.0 6.0 0.00 0.02 0.02 72 1004.7
20260504221114 55 220 4.0 5.0 0.00 0.02 0.02 73 1004.8
20260504220610 55 303 3.0 5.0 0.00 0.02 0.02 73 1005.0
20260504220108 55 223 3.0 3.0 0.00 0.02 0.02 73 1004.6
20260504215603 56 266 4.0 7.0 0.00 0.02 0.02 72 1004.7
20260504215101 55 232 4.0 5.0 0.00 0.02 0.02 71 1004.8
20260504214557 55 267 4.0 6.0 0.00 0.02 0.02 73 1004.6
20260504214053 55 275 5.0 6.0 0.00 0.02 0.02 72 1004.7
20260504213550 56 234 8.0 9.0 0.00 0.02 0.02 71 1004.8
20260504213047 57 244 7.0 10.0 0.00 0.02 0.02 71 1004.5
20260504212543 57 280 5.0 8.0 0.00 0.02 0.02 71 1004.7
20260504212040 55 213 1.0 3.0 0.00 0.02 0.02 74 1004.5
20260504211537 55 217 6.0 9.0 0.00 0.02 0.02 73 1004.6
20260504211034 55 272 10.0 13.0 0.00 0.02 0.02 72 1004.7
20260504210531 55 261 6.0 8.0 0.00 0.02 0.02 73 1004.2
20260504210028 55 290 7.0 8.0 0.00 0.02 0.02 73 1004.2
20260504205526 54 243 4.0 5.0 0.00 0.02 0.02 74 1004.5
20260504205023 54 265 5.0 5.0 0.00 0.02 0.02 74 1004.6
20260504204521 54 233 7.0 9.0 0.00 0.02 0.02 74 1004.4
20260504204020 54 241 7.0 9.0 0.00 0.02 0.02 74 1004.7
20260504203518 54 260 10.0 11.0 0.00 0.02 0.02 74 1004.6
20260504203015 54 301 7.0 11.0 0.00 0.02 0.02 74 1004.2
20260504202510 55 239 11.0 15.0 0.00 0.02 0.02 73 1004.0
20260504202007 54 260 9.0 11.0 0.00 0.02 0.02 73 1004.0
20260504201504 54 265 6.0 7.0 0.00 0.02 0.02 74 1004.2
20260504201002 54 245 9.0 9.0 0.00 0.02 0.02 74 1004.2
20260504200458 55 287 10.0 13.0 0.00 0.02 0.02 72 1004.4
20260504195955 54 228 7.0 8.0 0.00 0.02 0.02 74 1004.1
20260504195451 53 171 4.0 6.0 0.00 0.02 0.02 75 1004.5
20260504194948 53 248 8.0 10.0 0.00 0.02 0.02 74 1004.4
20260504194444 53 259 11.0 14.0 0.00 0.02 0.02 74 1003.9
20260504193940 54 281 11.0 15.0 0.00 0.02 0.02 72 1004.1
20260504193437 54 258 6.0 11.0 0.00 0.02 0.02 74 1004.0
20260504192936 53 306 17.0 21.0 0.00 0.02 0.02 74 1004.2
20260504192432 54 304 9.0 13.0 0.00 0.02 0.02 74 1004.2
20260504191932 54 245 12.0 16.0 0.00 0.02 0.02 74 1003.9
20260504191429 53 242 11.0 20.0 0.00 0.02 0.02 75 1004.1
20260504190924 53 284 13.0 16.0 0.00 0.02 0.02 73 1003.9
20260504190420 54 281 9.0 11.0 0.00 0.02 0.02 75 1004.1
20260504185917 53 237 7.0 10.0 0.00 0.02 0.02 77 1004.2
20260504185414 53 228 10.0 14.0 0.00 0.02 0.02 77 1004.0
20260504184910 53 293 5.0 7.0 0.00 0.02 0.02 79 1004.0
20260504184406 52 256 5.0 7.0 0.00 0.02 0.02 78 1004.1
20260504183902 52 271 10.0 13.0 0.00 0.02 0.02 78 1004.1
20260504183400 52 262 12.0 20.0 0.00 0.02 0.02 78 1004.1
20260504182857 53 246 3.0 5.0 0.00 0.02 0.02 77 1004.0
20260504182354 54 239 5.0 6.0 0.00 0.02 0.02 79 1004.0
20260504181851 53 290 7.0 9.0 0.00 0.02 0.02 78 1003.9
20260504181348 53 294 7.0 10.0 0.00 0.02 0.02 79 1004.0
20260504180847 52 275 9.0 11.0 0.00 0.02 0.02 82 1004.2
20260504180345 51 274 7.0 10.0 0.00 0.02 0.02 83 1004.1
20260504175843 50 245 10.0 13.0 0.00 0.02 0.02 84 1003.9
20260504175339 50 258 6.0 8.0 0.00 0.02 0.02 86 1004.1
20260504174838 49 240 8.0 9.0 0.00 0.02 0.02 88 1004.2
20260504174335 49 226 7.0 7.0 0.00 0.02 0.02 90 1004.4
20260504173832 49 234 6.0 7.0 0.00 0.02 0.02 92 1004.1
20260504173328 48 243 7.0 7.0 0.00 0.02 0.02 92 1004.4
20260504172826 49 204 8.0 9.0 0.00 0.02 0.02 90 1004.5
20260504172322 49 261 8.0 9.0 0.07 0.02 0.02 88 1004.6
20260504171818 50 225 8.0 10.0 0.07 0.02 0.02 85 1004.5
20260504171315 50 216 10.0 13.0 0.00 0.01 0.01 83 1004.2
20260504170812 50 258 11.0 14.0 0.00 0.01 0.01 83 1004.1
20260504170309 49 224 8.0 9.0 0.00 0.01 0.01 84 1004.2
20260504160227 47 214 4.0 5.0 0.00 0.00 0.00 87 1004.2
20260504150653 49 210 10.0 14.0 0.00 0.00 0.00 71 1004.0
20260504150150 50 189 7.0 10.0 0.00 0.00 0.00 70 1004.1
20260504141118 47 243 14.0 16.0 0.00 0.00 0.00 70 1005.2
20260504140615 48 211 11.0 13.0 0.00 0.00 0.00 69 1005.2
20260504140110 47 254 10.0 13.0 0.00 0.00 0.00 69 1004.8
20260504130539 47 228 13.0 15.0 0.00 0.00 0.00 66 1005.5
20260504110426 40 246 4.0 5.0 0.00 0.00 0.00 71 1005.8
20260504100343 36 201 3.0 3.0 0.00 0.00 0.00 77 1005.6
20260504081737 34 134 0.0 0.0 0.00 0.00 0.00 80 1005.2
20260504081233 34 150 0.0 0.0 0.00 0.00 0.00 80 1005.1
20260504080730 34 125 0.0 0.0 0.00 0.00 0.00 80 1005.3
20260504080226 34 126 0.0 0.0 0.00 0.00 0.00 80 1005.4
20260504070154 35 211 2.0 2.0 0.00 0.00 0.00 77 1005.4
20260504060114 35 196 1.0 1.0 0.00 0.00 0.00 78 1004.9
20260504050543 37 150 0.0 0.0 0.00 0.00 0.00 73 1004.8
20260504045536 37 162 1.0 2.0 0.00 0.00 0.00 74 1004.8
20260504045032 37 322 0.0 0.0 0.00 0.00 0.00 74 1004.9
20260504044530 37 63 1.0 1.0 0.00 0.00 0.00 74 1005.0
20260504044026 37 281 0.0 1.0 0.00 0.00 0.00 74 1004.8
20260504043523 37 164 0.0 1.0 0.00 0.00 0.00 73 1004.9
20260504043021 37 220 3.0 3.0 0.00 0.00 0.00 73 1004.9
20260504042517 38 252 3.0 5.0 0.00 0.00 0.00 73 1004.9
20260504042015 39 263 2.0 3.0 0.00 0.00 0.00 71 1004.9
20260504041510 39 1 2.0 2.0 0.00 0.00 0.00 71 1004.8
20260504041006 39 126 2.0 2.0 0.00 0.00 0.00 72 1004.9
20260504040504 38 227 2.0 3.0 0.00 0.00 0.00 72 1004.7
20260504040000 38 245 4.0 5.0 0.00 0.24 0.24 71 1004.8
20260504035458 38 295 6.0 9.0 0.00 0.24 0.24 72 1004.7
20260504034954 38 282 5.0 6.0 0.00 0.24 0.24 72 1004.4
20260504034452 38 245 5.0 6.0 0.00 0.24 0.24 72 1004.6
20260504033948 38 209 3.0 5.0 0.00 0.24 0.24 72 1004.5
20260504033446 38 240 4.0 6.0 0.00 0.24 0.24 72 1004.5
20260504032943 38 240 5.0 6.0 0.00 0.24 0.24 73 1004.5
20260504032440 38 165 1.0 1.0 0.00 0.24 0.24 72 1004.5
20260504031937 38 201 1.0 2.0 0.00 0.24 0.24 72 1004.5
20260504031434 38 173 1.0 2.0 0.00 0.24 0.24 72 1004.2
20260504030930 38 241 3.0 5.0 0.00 0.24 0.24 72 1004.1
20260504030427 38 273 4.0 5.0 0.00 0.24 0.24 72 1004.2
20260504025923 38 223 0.0 1.0 0.00 0.24 0.24 72 1004.1
20260504025420 38 306 0.0 0.0 0.00 0.24 0.24 72 1004.2
20260504024917 39 183 0.0 0.0 0.00 0.24 0.24 72 1004.0
20260504024414 39 165 1.0 1.0 0.00 0.24 0.24 71 1004.2
20260504023911 39 281 5.0 6.0 0.00 0.24 0.24 71 1004.2
20260504023408 39 255 6.0 7.0 0.00 0.24 0.24 71 1004.1
20260504022903 39 223 4.0 5.0 0.00 0.24 0.24 70 1004.1
20260504022400 39 121 3.0 5.0 0.00 0.24 0.24 70 1004.4
20260504021856 39 126 0.0 0.0 0.00 0.24 0.24 70 1004.1
20260504021354 40 259 5.0 6.0 0.00 0.24 0.24 70 1004.0
20260504020851 39 250 7.0 9.0 0.00 0.24 0.24 69 1004.1
20260504020348 40 247 5.0 6.0 0.00 0.24 0.24 69 1004.1
20260504015844 40 225 6.0 8.0 0.00 0.24 0.24 68 1003.9
20260504015340 40 295 3.0 5.0 0.00 0.24 0.24 68 1004.0
20260504014836 40 281 6.0 8.0 0.00 0.24 0.24 67 1004.0
20260504014332 40 249 6.0 7.0 0.00 0.24 0.24 68 1004.0
20260504013830 40 295 6.0 7.0 0.00 0.24 0.24 67 1004.0
20260504013328 40 193 1.0 2.0 0.00 0.24 0.24 68 1004.1
20260504012824 40 321 4.0 6.0 0.00 0.24 0.24 66 1003.9
20260504012322 40 146 1.0 2.0 0.00 0.24 0.24 68 1003.9
20260504011819 41 279 4.0 5.0 0.00 0.24 0.24 66 1003.9
20260504011316 41 288 5.0 7.0 0.00 0.24 0.24 66 1003.6
20260504010811 41 271 5.0 7.0 0.00 0.24 0.24 66 1003.8
20260504010307 41 295 5.0 6.0 0.00 0.24 0.24 66 1003.6
20260504005804 41 189 2.0 3.0 0.00 0.24 0.24 66 1003.6
20260504005301 41 254 6.0 8.0 0.00 0.24 0.24 66 1003.4
20260504004759 41 201 0.0 0.0 0.00 0.24 0.24 66 1003.5
20260504004256 41 128 3.0 3.0 0.00 0.24 0.24 65 1003.3
20260504003752 41 253 3.0 3.0 0.00 0.24 0.24 66 1003.5
20260504003249 41 268 6.0 8.0 0.00 0.24 0.24 65 1003.0
20260504002746 41 266 4.0 6.0 0.00 0.24 0.24 66 1003.4
20260504002243 41 274 7.0 8.0 0.00 0.24 0.24 65 1002.9
20260504001741 42 194 1.0 2.0 0.00 0.24 0.24 65 1003.2
20260504001237 42 235 3.0 5.0 0.00 0.24 0.24 65 1003.0
20260504000734 42 170 3.0 5.0 0.00 0.24 0.24 63 1002.7
20260504000233 42 304 5.0 7.0 0.00 0.24 0.24 63 1002.9
20260503235729 42 282 7.0 10.0 0.00 0.24 0.24 63 1003.0
20260503235226 42 239 3.0 3.0 0.00 0.24 0.24 63 1003.0
20260503234724 43 101 4.0 6.0 0.00 0.24 0.24 62 1002.6
20260503234222 42 256 14.0 29.0 0.00 0.24 0.24 63 1002.6
20260503233719 43 264 11.0 11.0 0.00 0.24 0.24 63 1002.8
20260503233214 43 316 7.0 8.0 0.00 0.24 0.24 62 1002.7
20260503232711 43 302 5.0 7.0 0.00 0.24 0.24 62 1002.6
20260503232208 43 233 7.0 8.0 0.00 0.24 0.24 63 1002.8
20260503231707 43 271 4.0 6.0 0.00 0.24 0.24 63 1002.7
20260503231203 43 14 5.0 7.0 0.00 0.24 0.24 62 1002.7
20260503230659 44 219 2.0 2.0 0.00 0.24 0.24 62 1002.5
20260503230157 44 224 4.0 5.0 0.00 0.24 0.24 62 1002.5
20260503225654 44 264 7.0 8.0 0.00 0.24 0.24 60 1002.2
20260503225154 44 288 3.0 7.0 0.00 0.24 0.24 60 1002.4
20260503224651 45 253 3.0 5.0 0.00 0.24 0.24 59 1002.4
20260503224149 46 286 4.0 7.0 0.00 0.24 0.24 57 1002.2
20260503223647 46 281 6.0 9.0 0.00 0.24 0.24 56 1002.3
20260503223143 47 315 11.0 14.0 0.00 0.24 0.24 56 1002.4
20260503222640 47 72 3.0 7.0 0.00 0.24 0.24 55 1002.1